Shelbyville, IN

12:19 PM EDT on October 22, 2017 (GMT -0400)
Shelbyville Municipal

Weather History for KGEZ - February, 2014

Change the Weather History Date:

Saturday, February 15, 2014

  Actual Average Record
Temperature  
Mean Temperature 19 °F 31 °F  
Max Temperature 25 °F 40 °F 64 °F (2005)
Min Temperature 12 °F 23 °F 1 °F (2007)
Degree Days  
Heating Degree Days 46 34  
Month to date heating degree days 691 523  
Since 1 July heating degree days 4057 3752  
Cooling Degree Days 0 0  
Month to date cooling degree days 0 0  
Year to date cooling degree days 0 0  
Moisture  
Dew Point 12 °F    
Average Humidity 67    
Maximum Humidity 74    
Minimum Humidity 60    
Precipitation  
Precipitation 0.04 in 0.08 in 0.38 in (2003)
Month to date precipitation 1.10 1.29  
Year to date precipitation 3.13 3.68  
Sea Level Pressure  
Sea Level Pressure 30.05 in    
Wind  
Wind Speed 8 mph (WSW)    
Max Wind Speed 15 mph    
Max Gust Speed 17 mph    
Visibility 7 miles    
Events Snow    
T = Trace of Precipitation, MM = Missing Value Source: NWS Daily Summary

Daily Weather History Graph

Daily Weather History Graph

Search for Another Location

Airport or City:

Trip Planner

Search our weather history database for the weather conditions in past years. The results will help you decide how hot, cold, wet, or windy it might be!

Date:

Astronomy

Feb. 15, 2014 Rise Set
Actual Time 7:35 AM EST 6:19 PM EST
Civil Twilight 7:07 AM EST 6:47 PM EST
Nautical Twilight 6:36 AM EST 7:18 PM EST
Astronomical Twilight 6:05 AM EST 7:50 PM EST
Moon 7:18 PM EST (2/15) 7:34 AM EST (2/15)
Length of Visible Light 11h 39m
Length of Day
10h 44m
Full, 100% of the Moon is Illuminated
Feb 15
Full
Feb 22
Last Quarter
Mar 1
New
Mar 8
First Quarter
Mar 16
Full

Hourly Weather History & Observations

Time (EST) Temp. Windchill Dew Point Humidity Pressure Visibility Wind Dir Wind Speed Gust Speed Precip Events Conditions
12:00 AM 19.0 °F 6.1 °F 10.9 °F 71% 29.85 in 8.0 mi NNW 12.7 mph - N/A   Mostly Cloudy
12:44 AM 16.0 °F 3.6 °F 10.0 °F 77% 29.86 in 8.0 mi NW 10.4 mph - N/A   Scattered Clouds
12:53 AM 16.0 °F 4.4 °F 9.0 °F 74% 29.90 in 8.0 mi NW 9.2 mph - N/A   Mostly Cloudy
1:53 AM 19.0 °F 9.0 °F 12.0 °F 74% 29.91 in 8.0 mi WNW 8.1 mph - N/A   Overcast
2:53 AM 19.0 °F 10.0 °F 12.0 °F 74% 29.93 in 8.0 mi WNW 6.9 mph - N/A   Overcast
3:53 AM 19.0 °F 8.2 °F 12.0 °F 74% 29.96 in 7.0 mi NW 9.2 mph - N/A   Overcast
4:53 AM 19.0 °F 6.8 °F 12.0 °F 74% 30.01 in 6.0 mi WNW 11.5 mph - N/A   Haze
5:06 AM 19.0 °F 6.8 °F 12.0 °F 74% 29.98 in 6.0 mi WNW 11.5 mph - 0.00 in   Haze
5:53 AM 18.0 °F 4.8 °F 10.0 °F 71% 30.04 in 9.0 mi NW 12.7 mph - 0.00 in   Overcast
6:53 AM 17.1 °F 6.6 °F 10.0 °F 74% 30.06 in 6.0 mi WNW 8.1 mph - 0.00 in   Haze
7:53 AM 14.0 °F 3.9 °F 7.0 °F 74% 30.09 in 8.0 mi West 6.9 mph - N/A   Mostly Cloudy
8:03 AM 15.1 °F 5.2 °F 8.1 °F 74% 30.05 in 6.0 mi West 6.9 mph - N/A   Haze
8:53 AM 15.1 °F 6.4 °F 8.1 °F 74% 30.11 in 4.0 mi West 5.8 mph - N/A   Haze
9:53 AM 12.9 °F 2.6 °F 5.0 °F 71% 30.12 in 6.0 mi WSW 6.9 mph - N/A   Haze
10:26 AM 12.0 °F 0.5 °F 5.0 °F 73% 30.10 in 7.0 mi WSW 8.1 mph - N/A   Scattered Clouds
10:34 AM 12.9 °F 1.6 °F 5.0 °F 71% 30.10 in 8.0 mi WSW 8.1 mph - N/A   Mostly Cloudy
10:53 AM 12.9 °F 2.6 °F 5.0 °F 71% 30.14 in 8.0 mi West 6.9 mph - N/A   Mostly Cloudy
11:04 AM 14.0 °F 3.9 °F 6.1 °F 71% 30.11 in 8.0 mi West 6.9 mph - N/A   Scattered Clouds
11:53 AM 16.0 °F 7.4 °F 7.0 °F 68% 30.16 in 8.0 mi SW 5.8 mph - N/A   Clear
12:53 PM 19.0 °F 11.1 °F 10.0 °F 68% 30.15 in 9.0 mi SW 5.8 mph - N/A   Clear
1:53 PM 21.9 °F - 12.0 °F 66% 30.14 in 9.0 mi Calm Calm - N/A   Clear
2:53 PM 24.1 °F 16.0 °F 12.0 °F 60% 30.12 in 10.0 mi WSW 6.9 mph - N/A   Clear
3:53 PM 23.0 °F 15.8 °F 12.9 °F 65% 30.12 in 10.0 mi SSE 5.8 mph - N/A   Clear
4:53 PM 24.1 °F 19.7 °F 12.9 °F 62% 30.12 in 10.0 mi South 3.5 mph - N/A   Clear
5:53 PM 25.0 °F 17.1 °F 14.0 °F 63% 30.10 in 10.0 mi South 6.9 mph - N/A   Clear
6:53 PM 24.1 °F 13.7 °F 12.9 °F 62% 30.10 in 10.0 mi South 10.4 mph - N/A   Partly Cloudy
7:53 PM 24.1 °F 13.7 °F 14.0 °F 65% 30.09 in 9.0 mi South 10.4 mph - N/A   Overcast
8:53 PM 24.1 °F 14.4 °F 14.0 °F 65% 30.08 in 10.0 mi South 9.2 mph - N/A   Overcast
9:53 PM 24.1 °F 15.2 °F 15.1 °F 69% 30.09 in 9.0 mi South 8.1 mph - N/A   Overcast
10:24 PM 23.0 °F 13.1 °F 16.0 °F 74% 30.05 in 2.0 mi South 9.2 mph - 0.00 in Snow Light Snow
10:31 PM 23.0 °F 13.9 °F 17.1 °F 78% 30.05 in 1.2 mi SSW 8.1 mph - 0.01 in Snow Light Snow
10:53 PM 23.0 °F 13.9 °F 18.0 °F 81% 30.08 in 1.2 mi South 8.1 mph - 0.02 in Snow Light Snow
11:07 PM 23.0 °F 13.9 °F 18.0 °F 81% 30.04 in 2.0 mi South 8.1 mph - 0.00 in Snow Light Snow
11:24 PM 23.0 °F 13.9 °F 19.0 °F 85% 30.02 in 1.8 mi South 8.1 mph - 0.00 in Snow Light Snow
11:53 PM 23.0 °F 13.9 °F 19.0 °F 85% 30.05 in 1.0 mi SSE 8.1 mph - 0.01 in Snow Light Snow